TimePST,TemperatureF,Dew PointF,Humidity,Sea Level PressureIn,VisibilityMPH,Wind Direction,Wind SpeedMPH,Gust SpeedMPH,PrecipitationIn,Events,Conditions,WindDirDegrees,DateUTC
12:53 AM,46.0,32.0,58,30.21,10.0,NNW,8.1,-,N/A,,Partly Cloudy,330,2013-01-11 08:53:00
1:53 AM,46.0,32.0,58,30.21,10.0,NNW,6.9,-,N/A,,Scattered Clouds,330,2013-01-11 09:53:00
2:53 AM,39.0,30.0,70,30.22,10.0,ENE,4.6,-,N/A,,Scattered Clouds,60,2013-01-11 10:53:00
3:53 AM,42.1,30.9,65,30.21,10.0,North,3.5,-,N/A,,Scattered Clouds,10,2013-01-11 11:53:00
4:53 AM,42.1,30.9,65,30.22,10.0,North,4.6,-,N/A,,Clear,350,2013-01-11 12:53:00
5:53 AM,43.0,30.0,60,30.24,10.0,NNW,5.8,-,N/A,,Clear,340,2013-01-11 13:53:00
6:53 AM,42.1,30.0,62,30.25,10.0,Variable,3.5,-,N/A,,Partly Cloudy,0,2013-01-11 14:53:00
7:53 AM,43.0,30.9,62,30.27,10.0,NNW,3.5,-,N/A,,Scattered Clouds,340,2013-01-11 15:53:00
8:53 AM,46.0,32.0,58,30.28,10.0,Calm,Calm,-,N/A,,Mostly Cloudy,0,2013-01-11 16:53:00
9:53 AM,46.9,33.1,59,30.28,10.0,Calm,Calm,-,N/A,,Overcast,0,2013-01-11 17:53:00
10:53 AM,48.0,34.0,58,30.27,10.0,South,4.6,-,N/A,,Overcast,170,2013-01-11 18:53:00
11:53 AM,48.2,35.6,62,30.23,10.0,South,9.2,-,N/A,,Partly Cloudy,170,2013-01-11 19:53:00
12:53 PM,50.0,35.1,57,30.20,10.0,SSE,5.8,-,N/A,,Mostly Cloudy,160,2013-01-11 20:53:00
1:53 PM,51.1,35.1,54,30.19,10.0,SSE,5.8,-,N/A,,Mostly Cloudy,150,2013-01-11 21:53:00
2:53 PM,52.0,37.9,59,30.17,10.0,SSE,3.5,-,N/A,,Scattered Clouds,150,2013-01-11 22:53:00
3:53 PM,53.1,42.1,66,30.16,10.0,West,12.7,-,N/A,,Scattered Clouds,280,2013-01-11 23:53:00
4:53 PM,51.1,42.1,71,30.15,10.0,West,17.3,-,N/A,,Scattered Clouds,280,2013-01-12 00:53:00
5:53 PM,50.0,44.1,80,30.15,10.0,West,12.7,-,N/A,,Partly Cloudy,280,2013-01-12 01:53:00
6:53 PM,48.0,41.0,77,30.16,10.0,NNW,3.5,-,N/A,,Scattered Clouds,330,2013-01-12 02:53:00
7:53 PM,48.0,41.0,77,30.15,10.0,NW,4.6,-,N/A,,Partly Cloudy,320,2013-01-12 03:53:00
8:53 PM,44.6,39.2,81,30.17,10.0,NE,4.6,-,N/A,,Scattered Clouds,50,2013-01-12 04:53:00
9:53 PM,45.0,39.9,82,30.18,10.0,Calm,Calm,-,N/A,,Scattered Clouds,0,2013-01-12 05:53:00
10:53 PM,42.1,39.0,89,30.19,10.0,NE,3.5,-,N/A,,Partly Cloudy,40,2013-01-12 06:53:00
11:53 PM,39.9,37.9,93,30.20,10.0,Calm,Calm,-,N/A,,Partly Cloudy,0,2013-01-12 07:53:00